Regional Weather Roundup
Issued by NWS

Home | Current Version | Previous Version | Graphics & Text | Print | Product List | Glossary On
Versions: 1 2 3 4 5 6 7 8 9 10 11 12 13 14 15 16 17 18 19 20 21 22 23 24 25 26 27 28 29 30 31 32 33 34 35 36 37 38 39 40 41 42 43 44 45 46 47 48 49 50
000
ASUS43 KMKX 291600
RWRWI

WISCONSIN REGIONAL WEATHER ROUNDUP
NATIONAL WEATHER SERVICE MILWAUKEE/SULLIVAN WI
1100 AM CDT SAT AUG 29 2015

NOTE: "FAIR" INDICATES FEW OR NO CLOUDS BELOW 12,000 FEET WITH NO
SIGNIFICANT WEATHER AND/OR OBSTRUCTIONS TO VISIBILITY.

WIZ001-002-006>008-014>016-023>028-291700-
NORTHWEST WISCONSIN

CITY           SKY/WX    TMP DP  RH WIND       PRES   REMARKS
SUPERIOR ARPT  PTSUNNY   68  60  75 W10       30.04R
ASHLAND        MOSUNNY   70  62  76 SW8       30.05R
HAYWARD        SUNNY     67  57  70 S10       30.06F
SIREN          SUNNY     67  58  72 W7        30.07S
CUMBERLAND     CLOUDY    59  57  94 S3        30.08S FOG
RICE LAKE      CLOUDY    61  58  89 W3        30.09R
CHETEK         CLOUDY   N/A N/A N/A N5        30.07S
LADYSMITH      PTSUNNY   63  60  88 CALM      30.09R
EAU CLAIRE     NOT AVBL
MENOMONIE      CLOUDY    61  59  92 CALM      30.07R
NEW RICHMOND   CLOUDY    59  58  97 CALM      30.09R FOG
OSCEOLA        CLOUDY    60  60 100 CALM      30.11S
$$

WIZ003>005-009-010-017-018-291700-
NORTH CENTRAL WISCONSIN

CITY           SKY/WX    TMP DP  RH WIND       PRES   REMARKS
MANITOWISH WTR MOSUNNY   66  58  74 SW5       30.08S
ARBOR VITAE    SUNNY     66  58  74 W5        30.08R
WOODRUFF       SUNNY     66  58  74 W5        30.08R
RHINELANDER    PTSUNNY   67  58  72 SW6       30.09S
EAGLE RIVER    MOSUNNY   66  56  69 SW3       30.08R
LAND O LAKES   PTSUNNY   67  56  68 SW5       30.09R
PHILLIPS       MOSUNNY   64  58  80 CALM      30.08R
TOMAHAWK       CLOUDY    64  58  83 CALM      30.09R
MEDFORD        CLOUDY    60  59  96 CALM      30.08R
MERRILL        CLOUDY    64  60  88 SE6       30.08R
$$

WIZ029-030-035-036-043>047-291700-
CENTRAL WISCONSIN

CITY           SKY/WX    TMP DP  RH WIND       PRES   REMARKS
WAUSAU         CLOUDY    63  59  87 S6        30.07R
MOSINEE        CLOUDY    61  61 100 SE7       30.09R
MARSHFIELD     CLOUDY    64  58  80 S6        30.07R
STEVENS POINT  CLOUDY    59  58  97 SE7       30.07F FOG
WAUPACA        CLOUDY    64  63  97 E5        30.08R
WAUTOMA        CLOUDY    63  63 100 CALM      30.07R
WISC RAPIDS    NOT AVBL
CAMP DOUGLAS   CLOUDY    63  63 100 E6        30.05S
$$

WIZ011>013-019>022-031-037>040-048>050-291700-
NORTHEAST WISCONSIN

CITY           SKY/WX    TMP DP  RH WIND       PRES   REMARKS
ANTIGO         CLOUDY    62  59  90 S8        30.09S
SHAWANO        CLOUDY    64  61  90 CALM      30.09R
OCONTO         CLOUDY    62  62 100 S7        30.09R
STURGEON BAY   CLOUDY    63  59  88 S8        30.11S
GREEN BAY      CLOUDY    64  61  90 SE8       30.08S FOG
MANITOWOC      NOT AVBL
APPLETON       CLOUDY    63  63 100 E8        30.05S
CLINTONVILLE   CLOUDY    63  59  88 S3        30.08R FOG
OSHKOSH        CLOUDY    63  60  90 E8        30.05F
$$

WIZ032>034-041-042-053>061-291700-
SOUTHWEST WISCONSIN

CITY           SKY/WX    TMP DP  RH WIND       PRES   REMARKS
LA CROSSE      CLOUDY    65  59  81 CALM      30.05R
SPARTA         CLOUDY    63  59  88 E6        30.06R
VIROQUA        CLOUDY    62  62 100 NE5       30.05S
BOSCOBEL       CLOUDY    66  63  90 CALM      30.03R
PRAIRIE DU CHI CLOUDY    63  62  96 NW6       30.03S
PLATTEVILLE    CLOUDY    67  66  96 N3        30.02R
$$

WIZ056-057-062-063-064-067-068-291700-
SOUTH CENTRAL WISCONSIN

CITY           SKY/WX    TMP DP  RH WIND       PRES   REMARKS
REEDSBURG      CLOUDY    62  61  97 NE6       30.04R
BARABOO/DELLS  CLOUDY    62  60  94 E5        30.04S
LONE ROCK      NOT AVBL
MINERAL POINT  CLOUDY    66  64  94 E3        30.03R FOG
MADISON        DRIZZLE   64  62  93 SE6       30.03S FOG
MIDDLETON      CLOUDY    65  65  99 SE3       30.04R
WATERTOWN      CLOUDY    63  63 100 CALM      30.05R FOG
MONROE         CLOUDY    63  63 100 S6        30.03S FOG
JANESVILLE     NOT AVBL
$$

WIZ051-052-058>065-066-070>072-291700-
SOUTHEAST WISCONSIN

CITY           SKY/WX    TMP DP  RH WIND       PRES   REMARKS
MILWAUKEE      CLOUDY    63  60  90 SE10      30.05S
WAUKESHA       CLOUDY    61  61 100 SE3       30.06S FOG
MILWAUKEE/TIMM DRIZZLE   61  57  88 SE7       30.07R
RACINE         CLOUDY    63  60  90 SE7       30.07S
BURLINGTON     CLOUDY    61  60  97 SE5       30.05R FOG
KENOSHA        CLOUDY    64  62  93 SE8       30.05S
FOND DU LAC    CLOUDY    64  61  90 SE8       30.05F
SHEBOYGAN      CLOUDY    62  61  96 SE7       30.08R FOG
WEST BEND      DRIZZLE   61  59  94 CALM      30.06R
JUNEAU         CLOUDY    61  60  97 E6        30.06S FOG
$$

LSZ147-162-291700-
LAKE SUPERIOR

STATION/POSITION TIME  TEMP    WIND        PRES    WAVE
                       AIR SEA DIR/SP/G            HT/PER
                 (UTC) (F)     (DEG/KT/KT) (MB)    (FT/S)
W MID LAKE BUOY  1450   56 55  250/ 14/ 16 1016.1R   3/ 4
DEVILS ISLAND    1500   57     250/ 15/ 18 1016.8R
PORT WING        1400   63     220/  5/  8 1016.9S
SAXON HARBOR     1540   68     200/  4/  7 1016.9R
$$

LMZ867-665-643>646-291700-
LAKE MICHIGAN

STATION/POSITION TIME  TEMP    WIND        PRES    WAVE
                       AIR SEA DIR/SP/G            HT/PER
                 (UTC) (F)     (DEG/KT/KT) (MB)    (FT/S)
CHAMBERS ISLAND  1500   65     190/  4/  7 1018.3F
S GREEN BAY BUOY 1500   60 62  140/ 12/ 14 1019.6R
N MID LAKE BUOY  1450   62 64  200/  8/ 10 1018.2F   2/ 4
NORTHPORT PIER   1500   62     140/  5/  7 1018.3S
SISTER BAY       1519   68     180/  7/  9   N/A
ALGOMA LAKESHORE 1514             CALM       N/A
SHEBOYGAN LAKESH 1500   55     170/  2/  3 1018.3R
PORT WASHINGTON  1500   57     200/  3/  7 1018.6R
ATWATER BUOY     1500   55 48  180/  4/  6 1019.0R
MILWAUKEE LAKESH 1500   55     170/  3/  4   N/A
S MID LAKE BUOY  1450   66 68  140/  8/ 10 1017.6F
KENOSHA   LAKESH 1500   58     180/  3/  5 1017.6R
$$

TC  - TEMPERATURE IN CELSIUS
VSB - VISIBILITY IN STATUTE MILES
WCI - WIND CHILL INDEX
HX  - HEAT INDEX



USA.gov is the U.S. government's official web portal to all federal, state and local government web resources and services.